QPF
0.00 0.00 0.00 0.00 0.00 0.00 0.00 0.00 0.00 0.00 0.00 0.00 0.00 0.00 0.00 0.00 0.00 0.00 0.00 0.01 0.01 0.02 0.03 0.02 0.02 0.02 0.03 0.03 0.03 0.03 0.03 0.03 0.03 0.03 0.03 0.03 0.02 0.03 0.03 0.03 0.03 0.02 0.01 0.02
0.00 0.00 0.00 0.00 0.00 0.00 0.00 0.00 0.00 0.00 0.00 0.00 0.00 0.00 0.00 0.00 0.00 0.00 0.00 0.00 0.01 0.01 0.01 0.01 0.02 0.02 0.02 0.02 0.04 0.04 0.03 0.03 0.04 0.04 0.03 0.03 0.03 0.03 0.02 0.03 0.03 0.03 0.04 0.05
0.00 0.00 0.00 0.00 0.00 0.00 0.00 0.00 0.00 0.00 0.00 0.00 0.00 0.00 0.00 0.00 0.00 0.00 0.00 0.00 0.01 0.01 0.01 0.01 0.02 0.02 0.01 0.02 0.02 0.02 0.02 0.02 0.02 0.02 0.03 0.02 0.02 0.01 0.02 0.02 0.03 0.05 0.06 0.07
0.00 0.00 0.00 0.00 0.00 0.00 0.00 0.00 0.00 0.00 0.00 0.00 0.00 0.00 0.00 0.00 0.01 0.01 0.01 0.01 0.01 0.01 0.01 0.01 0.01 0.01 0.01 0.01 0.01 0.01 0.02 0.03 0.02 0.02 0.02 0.02 0.02 0.03 0.03 0.03 0.03 0.04 0.05 0.05
0.00 0.00 0.00 0.00 0.00 0.00 0.00 0.00 0.00 0.00 0.00 0.00 0.00 0.00 0.00 0.00 0.01 0.01 0.01 0.01 0.00 0.00 0.00 0.00 0.00 0.00 0.01 0.01 0.02 0.02 0.02 0.02 0.03 0.03 0.03 0.04 0.05 0.06 0.06 0.07 0.06 0.05 0.05 0.04
0.00 0.00 0.00 0.00 0.00 0.00 0.00 0.00 0.00 0.01 0.01 0.01 0.01 0.01 0.01 0.00 0.01 0.01 0.01 0.00 0.01 0.01 0.01 0.00 0.00 0.01 0.01 0.01 0.02 0.03 0.03 0.03 0.05 0.06 0.07 0.08 0.10 0.11 0.13 0.14 0.10 0.07 0.06 0.06
0.00 0.00 0.00 0.00 0.00 0.00 0.00 0.00 0.00 0.01 0.02 0.01 0.01 0.01 0.01 0.00 0.01 0.01 0.01 0.01 0.01 0.01 0.01 0.01 0.01 0.01 0.01 0.01 0.02 0.03 0.03 0.04 0.05 0.06 0.08 0.10 0.11 0.11 0.12 0.12 0.10 0.08 0.07 0.06
0.01 0.00 0.00 0.00 0.00 0.01 0.01 0.01 0.01 0.02 0.02 0.01 0.01 0.01 0.00 0.00 0.01 0.02 0.02 0.01 0.01 0.01 0.01 0.01 0.01 0.01 0.01 0.01 0.02 0.02 0.03 0.04 0.04 0.05 0.07 0.09 0.10 0.10 0.10 0.11 0.10 0.09 0.08 0.08
0.00 0.00 0.00 0.00 0.00 0.01 0.01 0.02 0.02 0.02 0.02 0.02 0.02 0.01 0.01 0.01 0.01 0.02 0.02 0.01 0.01 0.01 0.01 0.01 0.01 0.00 0.01 0.01 0.01 0.02 0.02 0.02 0.03 0.03 0.04 0.07 0.09 0.10 0.13 0.13 0.12 0.12 0.10 0.09
0.01 0.01 0.01 0.01 0.01 0.01 0.02 0.03 0.03 0.03 0.03 0.02 0.03 0.03 0.02 0.01 0.01 0.01 0.01 0.02 0.02 0.04 0.06 0.04 0.02 0.01 0.01 0.01 0.02 0.02 0.02 0.01 0.01 0.02 0.02 0.03 0.04 0.05 0.06 0.06 0.07 0.07 0.07 0.06
0.01 0.01 0.01 0.02 0.02 0.03 0.04 0.04 0.04 0.04 0.04 0.04 0.03 0.03 0.02 0.02 0.01 0.01 0.01 0.02 0.02 0.04 0.04 0.02 0.01 0.01 0.01 0.01 0.01 0.02 0.01 0.01 0.02 0.02 0.03 0.05 0.05 0.05 0.06 0.05 0.04 0.05 0.05 0.05
0.02 0.02 0.02 0.02 0.03 0.03 0.04 0.04 0.04 0.04 0.03 0.03 0.03 0.03 0.03 0.02 0.02 0.01 0.02 0.04 0.03 0.02 0.02 0.02 0.01 0.01 0.01 0.02 0.03 0.03 0.02 0.03 0.06 0.07 0.06 0.05 0.04 0.03 0.03 0.03 0.03 0.03 0.03 0.04
0.02 0.02 0.02 0.02 0.03 0.03 0.04 0.03 0.04 0.06 0.05 0.05 0.05 0.04 0.03 0.03 0.03 0.02 0.03 0.04 0.04 0.02 0.02 0.03 0.04 0.03 0.03 0.03 0.05 0.05 0.04 0.05 0.05 0.05 0.04 0.04 0.04 0.03 0.03 0.03 0.03 0.04 0.04 0.04
0.01 0.01 0.02 0.03 0.04 0.04 0.03 0.03 0.03 0.04 0.03 0.06 0.06 0.06 0.05 0.04 0.03 0.03 0.03 0.04 0.04 0.03 0.02 0.03 0.04 0.03 0.02 0.02 0.02 0.02 0.02 0.02 0.02 0.02 0.02 0.02 0.03 0.03 0.04 0.04 0.04 0.04 0.04 0.04
0.01 0.01 0.02 0.03 0.05 0.04 0.02 0.02 0.03 0.03 0.03 0.03 0.04 0.05 0.06 0.05 0.03 0.03 0.04 0.04 0.04 0.03 0.03 0.03 0.04 0.04 0.03 0.03 0.03 0.03 0.02 0.02 0.02 0.02 0.02 0.03 0.03 0.04 0.04 0.04 0.04 0.04 0.04 0.03
0.01 0.01 0.01 0.03 0.05 0.03 0.02 0.02 0.02 0.02 0.02 0.02 0.03 0.03 0.03 0.03 0.02 0.02 0.02 0.03 0.04 0.03 0.02 0.03 0.03 0.03 0.03 0.04 0.04 0.04 0.04 0.03 0.03 0.04 0.04 0.04 0.05 0.06 0.06 0.05 0.05 0.05 0.05 0.04
0.02 0.02 0.02 0.03 0.04 0.04 0.02 0.03 0.04 0.03 0.03 0.02 0.02 0.02 0.02 0.02 0.02 0.02 0.02 0.03 0.04 0.04 0.04 0.03 0.04 0.03 0.03 0.03 0.03 0.03 0.03 0.03 0.04 0.04 0.05 0.06 0.07 0.07 0.06 0.06 0.06 0.06 0.06 0.05
0.04 0.04 0.03 0.03 0.04 0.04 0.03 0.02 0.03 0.03 0.03 0.03 0.03 0.02 0.02 0.02 0.02 0.04 0.07 0.08 0.06 0.04 0.04 0.03 0.03 0.02 0.03 0.03 0.03 0.03 0.03 0.03 0.03 0.04 0.04 0.04 0.04 0.04 0.05 0.05 0.05 0.05 0.04 0.04
0.04 0.04 0.03 0.03 0.04 0.04 0.03 0.03 0.03 0.03 0.03 0.03 0.04 0.03 0.02 0.03 0.03 0.04 0.09 0.12 0.08 0.06 0.05 0.04 0.04 0.04 0.04 0.04 0.04 0.03 0.02 0.03 0.03 0.03 0.03 0.03 0.03 0.03 0.03 0.04 0.04 0.04 0.03 0.03
0.04 0.03 0.02 0.02 0.02 0.03 0.03 0.03 0.03 0.03 0.02 0.03 0.03 0.03 0.03 0.03 0.03 0.03 0.05 0.08 0.11 0.11 0.09 0.06 0.05 0.05 0.05 0.05 0.05 0.05 0.05 0.06 0.06 0.05 0.04 0.04 0.04 0.04 0.04 0.04 0.03 0.03 0.03 0.03
0.03 0.03 0.02 0.02 0.01 0.01 0.02 0.03 0.03 0.02 0.02 0.02 0.02 0.02 0.02 0.01 0.02 0.02 0.04 0.05 0.06 0.07 0.07 0.07 0.07 0.06 0.05 0.04 0.05 0.05 0.07 0.07 0.08 0.07 0.06 0.05 0.04 0.04 0.04 0.03 0.02 0.02 0.03 0.02
0.03 0.03 0.02 0.01 0.01 0.01 0.01 0.02 0.02 0.02 0.02 0.01 0.01 0.01 0.02 0.02 0.02 0.03 0.04 0.04 0.05 0.06 0.06 0.06 0.07 0.08 0.07 0.05 0.05 0.05 0.05 0.05 0.05 0.05 0.04 0.04 0.04 0.03 0.03 0.02 0.02 0.01 0.01 0.01
0.02 0.02 0.02 0.02 0.01 0.01 0.01 0.02 0.01 0.01 0.01 0.02 0.02 0.02 0.03 0.04 0.05 0.06 0.06 0.05 0.05 0.06 0.07 0.07 0.06 0.06 0.06 0.05 0.05 0.05 0.05 0.05 0.06 0.05 0.04 0.03 0.02 0.02 0.01 0.01 0.01 0.01 0.01 0.01
0.02 0.02 0.02 0.02 0.02 0.02 0.01 0.01 0.01 0.01 0.01 0.02 0.02 0.02 0.03 0.03 0.03 0.04 0.06 0.06 0.06 0.07 0.06 0.06 0.06 0.06 0.06 0.06 0.06 0.05 0.05 0.05 0.04 0.04 0.04 0.03 0.02 0.02 0.01 0.01 0.01 0.00 0.00 0.00
0.01 0.01 0.01 0.02 0.02 0.02 0.02 0.01 0.01 0.01 0.02 0.02 0.03 0.03 0.03 0.04 0.05 0.05 0.05 0.04 0.04 0.04 0.04 0.04 0.05 0.06 0.05 0.05 0.05 0.05 0.04 0.04 0.03 0.03 0.02 0.02 0.02 0.02 0.02 0.01 0.00 0.00 0.00 0.00
0.01 0.01 0.02 0.03 0.03 0.04 0.04 0.03 0.03 0.03 0.05 0.05 0.04 0.03 0.03 0.03 0.04 0.06 0.05 0.04 0.04 0.05 0.06 0.07 0.06 0.05 0.04 0.03 0.03 0.02 0.02 0.02 0.02 0.02 0.02 0.02 0.02 0.02 0.02 0.02 0.01 0.01 0.00 0.00
0.01 0.02 0.02 0.03 0.03 0.03 0.05 0.05 0.04 0.05 0.06 0.06 0.05 0.04 0.04 0.04 0.04 0.05 0.05 0.05 0.05 0.05 0.05 0.05 0.05 0.04 0.03 0.03 0.02 0.01 0.01 0.01 0.01 0.01 0.01 0.01 0.01 0.01 0.01 0.01 0.01 0.01 0.01 0.00
MSLP
1013.87 1014.39 1014.96 1015.60 1016.28 1016.97 1017.62 1018.19 1018.65 1018.96 1019.11 1019.12 1019.01 1018.82 1018.59 1018.36 1018.15 1017.99 1017.87 1017.78 1017.70 1017.62 1017.52 1017.38 1017.20 1016.97 1016.71 1016.43 1016.12 1015.82 1015.53 1015.25 1015.02 1014.83 1014.69 1014.63 1014.63 1014.69 1014.80 1014.94 1015.09 1015.21 1015.28 1015.27
1014.53 1014.96 1015.38 1015.80 1016.23 1016.68 1017.14 1017.59 1018.01 1018.38 1018.69 1018.93 1019.08 1019.16 1019.18 1019.14 1019.06 1018.95 1018.83 1018.69 1018.54 1018.38 1018.20 1018.02 1017.81 1017.59 1017.35 1017.08 1016.80 1016.51 1016.22 1015.94 1015.69 1015.49 1015.36 1015.30 1015.31 1015.40 1015.54 1015.70 1015.86 1015.99 1016.04 1016.00
1015.25 1015.57 1015.82 1016.02 1016.22 1016.43 1016.70 1017.03 1017.42 1017.84 1018.29 1018.72 1019.12 1019.44 1019.68 1019.82 1019.86 1019.81 1019.69 1019.51 1019.30 1019.07 1018.85 1018.63 1018.42 1018.21 1018.00 1017.79 1017.56 1017.31 1017.05 1016.80 1016.57 1016.38 1016.26 1016.22 1016.26 1016.37 1016.52 1016.69 1016.85 1016.95 1016.98 1016.90
1015.92 1016.11 1016.17 1016.15 1016.13 1016.14 1016.24 1016.46 1016.82 1017.29 1017.85 1018.46 1019.06 1019.60 1020.04 1020.34 1020.51 1020.53 1020.43 1020.24 1019.99 1019.72 1019.46 1019.23 1019.03 1018.85 1018.69 1018.53 1018.36 1018.17 1017.97 1017.77 1017.58 1017.43 1017.34 1017.32 1017.38 1017.50 1017.66 1017.83 1017.97 1018.04 1018.03 1017.91
1016.43 1016.44 1016.31 1016.10 1015.87 1015.71 1015.69 1015.83 1016.17 1016.69 1017.36 1018.12 1018.90 1019.63 1020.24 1020.70 1020.98 1021.09 1021.03 1020.86 1020.61 1020.34 1020.08 1019.85 1019.67 1019.53 1019.42 1019.32 1019.21 1019.08 1018.94 1018.79 1018.64 1018.53 1018.47 1018.47 1018.55 1018.67 1018.83 1018.99 1019.11 1019.16 1019.11 1018.95
1016.67 1016.50 1016.18 1015.80 1015.42 1015.13 1015.02 1015.12 1015.46 1016.04 1016.80 1017.69 1018.63 1019.52 1020.29 1020.90 1021.30 1021.51 1021.53 1021.41 1021.20 1020.95 1020.71 1020.51 1020.36 1020.26 1020.19 1020.14 1020.08 1020.01 1019.91 1019.80 1019.70 1019.61 1019.57 1019.59 1019.66 1019.79 1019.94 1020.08 1020.18 1020.20 1020.12 1019.94
1016.61 1016.25 1015.78 1015.26 1014.78 1014.42 1014.26 1014.36 1014.74 1015.37 1016.23 1017.23 1018.29 1019.32 1020.23 1020.97 1021.50 1021.81 1021.93 1021.89 1021.75 1021.56 1021.37 1021.21 1021.10 1021.04 1021.01 1020.99 1020.97 1020.93 1020.86 1020.77 1020.68 1020.61 1020.57 1020.58 1020.65 1020.76 1020.88 1021.00 1021.07 1021.08 1020.98 1020.79
1016.25 1015.75 1015.16 1014.57 1014.04 1013.67 1013.53 1013.66 1014.09 1014.79 1015.72 1016.80 1017.96 1019.09 1020.12 1020.97 1021.61 1022.04 1022.26 1022.32 1022.27 1022.17 1022.05 1021.95 1021.88 1021.85 1021.85 1021.85 1021.84 1021.81 1021.74 1021.66 1021.56 1021.48 1021.43 1021.42 1021.45 1021.53 1021.62 1021.70 1021.75 1021.73 1021.63 1021.45
1015.67 1015.08 1014.45 1013.85 1013.34 1013.02 1012.94 1013.13 1013.62 1014.39 1015.38 1016.52 1017.74 1018.94 1020.03 1020.97 1021.70 1022.23 1022.56 1022.73 1022.78 1022.76 1022.72 1022.68 1022.66 1022.66 1022.67 1022.67 1022.66 1022.62 1022.54 1022.44 1022.32 1022.21 1022.12 1022.08 1022.07 1022.09 1022.13 1022.17 1022.18 1022.14 1022.04 1021.86
1014.99 1014.38 1013.78 1013.24 1012.82 1012.60 1012.62 1012.90 1013.46 1014.28 1015.30 1016.47 1017.71 1018.93 1020.05 1021.03 1021.83 1022.43 1022.85 1023.11 1023.25 1023.32 1023.34 1023.36 1023.37 1023.39 1023.41 1023.41 1023.38 1023.32 1023.22 1023.09 1022.94 1022.79 1022.67 1022.57 1022.50 1022.47 1022.45 1022.44 1022.40 1022.33 1022.20 1022.02
1014.34 1013.80 1013.29 1012.88 1012.60 1012.51 1012.65 1013.03 1013.66 1014.51 1015.55 1016.70 1017.91 1019.11 1020.22 1021.20 1022.02 1022.66 1023.14 1023.46 1023.67 1023.81 1023.89 1023.94 1023.98 1024.01 1024.02 1024.00 1023.96 1023.87 1023.75 1023.59 1023.42 1023.24 1023.07 1022.92 1022.80 1022.70 1022.61 1022.53 1022.44 1022.32 1022.16 1021.97
1013.83 1013.42 1013.07 1012.82 1012.72 1012.79 1013.06 1013.54 1014.22 1015.09 1016.10 1017.21 1018.36 1019.49 1020.55 1021.49 1022.28 1022.93 1023.43 1023.79 1024.04 1024.20 1024.31 1024.39 1024.43 1024.45 1024.45 1024.42 1024.35 1024.25 1024.11 1023.94 1023.75 1023.55 1023.35 1023.16 1022.98 1022.82 1022.66 1022.50 1022.34 1022.16 1021.95 1021.73
1013.53 1013.28 1013.12 1013.06 1013.14 1013.37 1013.77 1014.33 1015.05 1015.91 1016.88 1017.92 1018.98 1020.02 1020.99 1021.86 1022.60 1023.22 1023.70 1024.07 1024.32 1024.50 1024.61 1024.68 1024.71 1024.72 1024.69 1024.64 1024.56 1024.45 1024.30 1024.13 1023.94 1023.73 1023.51 1023.29 1023.07 1022.85 1022.62 1022.39 1022.15 1021.89 1021.62 1021.34
1013.43 1013.36 1013.39 1013.52 1013.78 1014.15 1014.66 1015.28 1016.02 1016.86 1017.76 1018.71 1019.67 1020.60 1021.47 1022.26 1022.94 1023.50 1023.95 1024.29 1024.53 1024.68 1024.78 1024.82 1024.83 1024.80 1024.76 1024.68 1024.59 1024.47 1024.33 1024.17 1023.99 1023.79 1023.57 1023.33 1023.08 1022.80 1022.51 1022.20 1021.88 1021.54 1021.19 1020.84
1013.47 1013.58 1013.79 1014.09 1014.49 1014.99 1015.57 1016.24 1016.98 1017.77 1018.61 1019.47 1020.33 1021.15 1021.92 1022.62 1023.22 1023.73 1024.13 1024.43 1024.64 1024.77 1024.83 1024.83 1024.80 1024.75 1024.67 1024.57 1024.47 1024.35 1024.22 1024.08 1023.91 1023.73 1023.51 1023.26 1022.98 1022.66 1022.31 1021.93 1021.52 1021.09 1020.66 1020.23
1013.60 1013.86 1014.21 1014.65 1015.16 1015.74 1016.38 1017.06 1017.79 1018.54 1019.31 1020.09 1020.85 1021.58 1022.27 1022.89 1023.43 1023.88 1024.24 1024.50 1024.66 1024.75 1024.78 1024.74 1024.67 1024.58 1024.47 1024.36 1024.24 1024.12 1024.00 1023.87 1023.72 1023.54 1023.33 1023.07 1022.77 1022.40 1021.99 1021.54 1021.05 1020.54 1020.02 1019.51
1013.73 1014.11 1014.57 1015.11 1015.70 1016.33 1017.00 1017.68 1018.38 1019.09 1019.80 1020.50 1021.19 1021.85 1022.47 1023.03 1023.52 1023.92 1024.24 1024.47 1024.60 1024.66 1024.65 1024.58 1024.48 1024.35 1024.21 1024.07 1023.94 1023.82 1023.70 1023.57 1023.43 1023.25 1023.03 1022.75 1022.41 1022.00 1021.53 1021.00 1020.44 1019.85 1019.25 1018.68
1013.82 1014.28 1014.83 1015.43 1016.07 1016.73 1017.40 1018.07 1018.74 1019.41 1020.07 1020.71 1021.35 1021.95 1022.52 1023.03 1023.48 1023.86 1024.15 1024.35 1024.46 1024.49 1024.45 1024.36 1024.23 1024.08 1023.91 1023.76 1023.61 1023.47 1023.34 1023.20 1023.04 1022.84 1022.59 1022.28 1021.89 1021.43 1020.89 1020.30 1019.67 1019.01 1018.36 1017.73
1013.86 1014.39 1014.98 1015.62 1016.28 1016.95 1017.62 1018.27 1018.91 1019.54 1020.16 1020.76 1021.35 1021.91 1022.43 1022.91 1023.33 1023.68 1023.95 1024.14 1024.23 1024.25 1024.20 1024.09 1023.94 1023.77 1023.59 1023.41 1023.24 1023.08 1022.92 1022.74 1022.55 1022.31 1022.01 1021.65 1021.20 1020.68 1020.09 1019.43 1018.74 1018.04 1017.34 1016.68
1013.87 1014.45 1015.08 1015.74 1016.42 1017.09 1017.74 1018.37 1018.98 1019.58 1020.15 1020.71 1021.26 1021.77 1022.26 1022.71 1023.10 1023.42 1023.67 1023.84 1023.92 1023.93 1023.87 1023.75 1023.60 1023.41 1023.22 1023.02 1022.82 1022.63 1022.43 1022.21 1021.96 1021.66 1021.30 1020.87 1020.36 1019.78 1019.13 1018.43 1017.70 1016.96 1016.25 1015.57
1013.91 1014.52 1015.18 1015.86 1016.54 1017.20 1017.84 1018.45 1019.03 1019.59 1020.12 1020.64 1021.13 1021.60 1022.04 1022.44 1022.80 1023.09 1023.31 1023.45 1023.52 1023.52 1023.45 1023.33 1023.17 1022.97 1022.77 1022.55 1022.32 1022.09 1021.84 1021.57 1021.25 1020.89 1020.46 1019.97 1019.39 1018.76 1018.06 1017.33 1016.57 1015.83 1015.12 1014.46
1014.00 1014.65 1015.33 1016.02 1016.70 1017.36 1017.97 1018.56 1019.10 1019.62 1020.11 1020.57 1021.01 1021.42 1021.80 1022.14 1022.44 1022.68 1022.86 1022.98 1023.02 1023.00 1022.92 1022.79 1022.62 1022.42 1022.20 1021.96 1021.70 1021.43 1021.13 1020.80 1020.42 1019.99 1019.50 1018.94 1018.32 1017.64 1016.92 1016.18 1015.43 1014.70 1014.02 1013.39
1014.19 1014.86 1015.56 1016.25 1016.92 1017.56 1018.15 1018.70 1019.21 1019.68 1020.11 1020.51 1020.88 1021.22 1021.53 1021.80 1022.03 1022.21 1022.33 1022.40 1022.41 1022.37 1022.27 1022.13 1021.94 1021.73 1021.49 1021.23 1020.94 1020.62 1020.28 1019.89 1019.46 1018.97 1018.43 1017.82 1017.17 1016.48 1015.75 1015.02 1014.30 1013.61 1012.97 1012.40
1014.46 1015.14 1015.84 1016.52 1017.18 1017.79 1018.35 1018.85 1019.31 1019.72 1020.09 1020.42 1020.72 1020.98 1021.21 1021.40 1021.56 1021.67 1021.73 1021.74 1021.71 1021.63 1021.50 1021.34 1021.14 1020.90 1020.64 1020.35 1020.03 1019.67 1019.28 1018.85 1018.37 1017.84 1017.26 1016.64 1015.98 1015.29 1014.59 1013.89 1013.22 1012.59 1012.01 1011.51
1014.78 1015.46 1016.14 1016.79 1017.41 1017.98 1018.49 1018.95 1019.35 1019.70 1020.00 1020.27 1020.49 1020.67 1020.82 1020.94 1021.01 1021.05 1021.05 1021.01 1020.92 1020.80 1020.64 1020.45 1020.22 1019.95 1019.66 1019.34 1018.98 1018.59 1018.16 1017.69 1017.18 1016.63 1016.04 1015.41 1014.76 1014.10 1013.45 1012.81 1012.20 1011.63 1011.13 1010.69
1015.11 1015.75 1016.39 1017.00 1017.56 1018.07 1018.52 1018.92 1019.26 1019.55 1019.79 1019.99 1020.14 1020.26 1020.34 1020.38 1020.39 1020.37 1020.31 1020.22 1020.09 1019.92 1019.72 1019.49 1019.23 1018.93 1018.61 1018.25 1017.85 1017.42 1016.96 1016.46 1015.93 1015.37 1014.78 1014.17 1013.56 1012.94 1012.34 1011.77 1011.23 1010.74 1010.30 1009.92
1015.39 1015.98 1016.55 1017.09 1017.58 1018.02 1018.40 1018.73 1019.01 1019.24 1019.42 1019.56 1019.66 1019.72 1019.75 1019.75 1019.71 1019.64 1019.54 1019.40 1019.23 1019.03 1018.79 1018.53 1018.23 1017.89 1017.53 1017.13 1016.69 1016.23 1015.74 1015.22 1014.67 1014.11 1013.53 1012.95 1012.38 1011.82 1011.28 1010.77 1010.30 1009.88 1009.50 1009.17
Thickness
5755 5764 5767 5770 5772 5770 5765 5761 5755 5765 5770 5787 5796 5801 5805 5807 5807 5806 5806 5806 5805 5803 5803 5802 5800 5799 5798 5796 5794 5791 5787 5783 5781 5779 5776 5774 5772 5769 5767 5765 5763 5761 5758 5756
5750 5760 5762 5764 5771 5773 5772 5770 5768 5771 5775 5793 5798 5800 5801 5802 5802 5802 5802 5804 5804 5802 5800 5799 5798 5797 5795 5793 5792 5789 5785 5782 5779 5776 5773 5771 5769 5766 5763 5761 5759 5756 5754 5752
5730 5745 5755 5748 5764 5769 5772 5775 5773 5768 5779 5791 5791 5794 5796 5798 5800 5800 5800 5801 5800 5800 5798 5798 5797 5797 5794 5792 5790 5786 5782 5779 5776 5773 5770 5768 5766 5762 5759 5757 5754 5751 5749 5747
5716 5730 5723 5748 5771 5773 5770 5773 5776 5778 5782 5786 5789 5793 5796 5798 5797 5797 5798 5798 5799 5798 5796 5796 5796 5794 5793 5789 5785 5782 5778 5775 5773 5769 5766 5764 5760 5757 5754 5752 5749 5746 5744 5742
5701 5706 5720 5747 5763 5763 5759 5760 5773 5773 5777 5781 5785 5787 5788 5795 5796 5795 5795 5796 5796 5796 5795 5793 5791 5790 5787 5783 5780 5776 5773 5771 5769 5766 5762 5758 5754 5751 5749 5745 5743 5741 5739 5737
5695 5701 5704 5736 5758 5765 5759 5747 5767 5769 5769 5772 5775 5765 5774 5788 5790 5790 5791 5791 5791 5791 5790 5788 5786 5784 5780 5776 5773 5771 5770 5768 5765 5763 5757 5753 5750 5746 5743 5740 5739 5737 5734 5732
5690 5694 5708 5736 5750 5756 5732 5738 5759 5762 5762 5764 5764 5768 5775 5780 5782 5783 5784 5786 5786 5785 5783 5782 5781 5778 5773 5770 5768 5767 5765 5762 5759 5757 5753 5751 5747 5743 5740 5736 5733 5731 5729 5727
5681 5685 5699 5733 5738 5732 5733 5746 5751 5753 5756 5759 5762 5766 5769 5771 5773 5775 5776 5778 5779 5777 5775 5775 5775 5772 5768 5765 5764 5762 5759 5755 5753 5751 5749 5746 5741 5738 5735 5731 5727 5725 5723 5721
5687 5693 5711 5722 5727 5733 5737 5738 5742 5745 5749 5753 5754 5756 5759 5761 5763 5766 5768 5769 5770 5769 5766 5766 5765 5764 5760 5759 5758 5754 5751 5748 5745 5743 5741 5739 5735 5732 5728 5725 5721 5719 5717 5715
5685 5697 5707 5715 5721 5726 5731 5733 5737 5740 5742 5745 5744 5747 5748 5750 5753 5755 5758 5759 5760 5759 5757 5756 5756 5755 5754 5752 5750 5747 5743 5740 5737 5735 5733 5730 5728 5725 5721 5718 5715 5712 5710 5708
5678 5690 5698 5707 5712 5717 5722 5727 5729 5732 5734 5736 5736 5738 5739 5741 5744 5746 5748 5750 5751 5749 5748 5747 5747 5747 5746 5745 5742 5738 5735 5732 5730 5727 5725 5722 5720 5718 5715 5714 5711 5707 5705 5702
5673 5684 5685 5693 5704 5709 5712 5715 5718 5720 5722 5725 5726 5728 5730 5733 5736 5737 5738 5739 5740 5739 5739 5739 5738 5737 5737 5736 5733 5730 5726 5724 5722 5719 5717 5715 5712 5709 5708 5705 5703 5701 5699 5697
5676 5683 5684 5691 5696 5701 5702 5705 5708 5711 5713 5714 5717 5719 5721 5722 5725 5727 5729 5730 5730 5730 5730 5730 5729 5727 5727 5727 5724 5720 5718 5716 5714 5712 5710 5707 5705 5702 5699 5697 5695 5693 5691 5688
5673 5676 5677 5683 5687 5692 5695 5698 5700 5702 5704 5707 5709 5711 5712 5713 5715 5716 5718 5721 5721 5720 5720 5720 5719 5719 5718 5718 5715 5712 5710 5708 5706 5704 5703 5700 5698 5695 5693 5690 5688 5686 5683 5680
5667 5670 5671 5676 5679 5683 5687 5689 5690 5692 5694 5696 5698 5700 5703 5704 5704 5706 5709 5710 5710 5709 5709 5709 5708 5708 5709 5708 5705 5702 5701 5700 5698 5696 5694 5692 5690 5687 5685 5682 5680 5678 5675 5673
5658 5662 5665 5667 5670 5673 5676 5679 5680 5682 5685 5687 5688 5690 5692 5694 5694 5695 5697 5698 5697 5697 5699 5699 5699 5699 5699 5698 5696 5694 5693 5692 5689 5687 5684 5682 5680 5677 5675 5673 5671 5668 5666 5664
5648 5651 5655 5657 5661 5665 5668 5671 5672 5674 5676 5677 5679 5681 5682 5683 5684 5684 5686 5687 5688 5689 5690 5691 5690 5691 5691 5690 5687 5685 5684 5683 5680 5678 5675 5672 5670 5668 5666 5663 5661 5659 5657 5655
5644 5646 5649 5652 5654 5657 5660 5663 5665 5667 5668 5670 5672 5673 5673 5674 5674 5675 5676 5677 5678 5679 5681 5683 5682 5682 5682 5681 5679 5677 5675 5673 5671 5668 5666 5663 5661 5659 5657 5654 5652 5649 5647 5645
5640 5642 5644 5647 5649 5651 5653 5655 5658 5660 5662 5663 5663 5663 5665 5665 5666 5667 5667 5667 5668 5669 5672 5672 5671 5671 5672 5672 5671 5669 5666 5663 5661 5658 5656 5652 5650 5648 5646 5644 5641 5640 5638 5634
5636 5638 5640 5642 5644 5644 5646 5648 5650 5651 5654 5655 5655 5655 5655 5657 5657 5658 5657 5658 5659 5660 5662 5661 5661 5661 5661 5661 5660 5658 5656 5653 5650 5648 5645 5642 5640 5638 5636 5634 5632 5630 5627 5625
5629 5632 5633 5635 5636 5638 5639 5641 5642 5643 5645 5646 5646 5646 5647 5647 5648 5648 5648 5649 5652 5652 5652 5652 5651 5651 5650 5650 5649 5647 5644 5642 5640 5637 5635 5632 5630 5628 5626 5624 5622 5619 5617 5615
5622 5624 5625 5627 5628 5630 5632 5634 5635 5636 5637 5638 5639 5639 5638 5638 5638 5639 5640 5640 5642 5642 5642 5642 5642 5641 5640 5639 5638 5635 5633 5631 5629 5627 5625 5622 5620 5618 5616 5613 5611 5609 5606 5604
5615 5617 5618 5620 5621 5623 5625 5626 5627 5629 5630 5630 5631 5630 5630 5630 5630 5629 5630 5632 5633 5633 5633 5633 5632 5630 5629 5629 5627 5625 5623 5621 5619 5617 5615 5613 5611 5609 5606 5603 5600 5598 5595 5592
5609 5610 5612 5614 5615 5616 5617 5619 5620 5622 5623 5623 5623 5623 5622 5622 5621 5621 5621 5622 5623 5623 5623 5622 5621 5620 5620 5619 5617 5614 5612 5610 5609 5607 5605 5602 5600 5598 5596 5593 5590 5587 5584 5581
5603 5604 5606 5607 5607 5608 5610 5611 5613 5614 5615 5616 5616 5615 5615 5614 5613 5613 5613 5614 5613 5613 5613 5613 5612 5611 5610 5608 5606 5603 5601 5599 5598 5596 5594 5592 5590 5588 5585 5582 5579 5577 5573 5570
5597 5598 5599 5600 5601 5602 5603 5604 5605 5606 5607 5607 5607 5607 5607 5606 5605 5605 5605 5605 5605 5604 5603 5602 5601 5600 5598 5597 5595 5593 5590 5588 5587 5586 5584 5582 5579 5577 5574 5572 5569 5566 5563 5559
5592 5592 5593 5595 5596 5596 5597 5597 5598 5599 5599 5599 5599 5599 5598 5597 5597 5597 5597 5597 5596 5595 5593 5592 5591 5590 5588 5587 5585 5583 5581 5579 5577 5575 5574 5571 5568 5566 5564 5561 5558 5555 5552 5548